Powrót do katalogu

STARLINK-31658

AktywnyŁącznośćVLEO
NORAD 59513·PAYLOAD·🇺🇸 United States

Wystrzelony Apr 17, 2024 z Cape Canaveral Space Force Station

Loading…

Następne Przeloty (najbliższe 24 godziny)

TLE

ŚwieżeSource: CelesTrak SupGP

Epoka: Sep 14, 2026, 20:51 UTC

1 59513C 24073C   26257.86923611 -.00013535  00000+0 -49015-3 0  2574
2 59513  43.0029 289.3625 0001455 294.1174  33.8859 15.27590520    14

Śledź STARLINK-31658 w czasie rzeczywistym z AllMySat

Download on the App Store